Flag for U.S.A. Weather past 2 weeks in Cambridge, Massachusetts, U.S.A.

Now
43 °F

Scattered clouds.


Feels Like: 38 °F
Forecast: 35 / 49 °F
Wind: 8 mph from West

Location: Logan International Airport

Current Time: Dec 27, 2014 at 9:34:49 AM

Latest Report: Dec 27, 2014 at 8:54 AM


Visibility: 10 mi

Pressure: 30.21 "Hg

Humidity: 60%

Dew point: 30 °F

Location of CambridgeLocation

Historic Weather in Cambridge — Graph

°F

Cambridge temperature yesterday

Maximum temperature yesterday: 49 °F (at 1:54 PM)
Minimum temperature yesterday: 38 °F (at 5:54 AM)
Average temperature yesterday: 44 °F

Past Weeks' High & Low Weather Summary

 TemperatureHumidityPressure
High58 °F (Dec 25, 3:54 AM)100% (Dec 17, 2:54 AM)30.39 "Hg (Dec 17, 2:54 AM)
Low27 °F (Dec 20, 6:54 AM)48% (Dec 26, 2:54 PM)29.47 "Hg (Dec 25, 4:54 AM)
Average39 °F76%30.00 "Hg
* Reported Dec 12 7:54 AM — Dec 27 7:54 AM, Cambridge, Weather by CustomWeather, © 2014

Note: Actual official high and low records may vary slightly from our data, if they occured in-between our weather recording intervals... More about our weather records

Advertising

Cambridge weather history for previous 24 hours

 ConditionsComfort  
Time TempWeatherWind HumidityBarometerVisibility
7:54 AM
Dec 27
41 °FScattered clouds.8 mph62%30.19 "Hg10 mi
6:54 AM40 °FPassing clouds.8 mph65%30.18 "Hg10 mi
5:54 AM41 °FPassing clouds.8 mph62%30.16 "Hg10 mi
4:54 AM40 °FClear.8 mph65%30.14 "Hg10 mi
3:54 AM41 °FPassing clouds.10 mph62%30.14 "Hg10 mi
2:54 AM41 °FClear.9 mph62%30.15 "Hg10 mi
1:54 AM40 °FClear.8 mph65%30.14 "Hg10 mi
12:54 AM40 °FPassing clouds.7 mph65%30.13 "Hg10 mi
11:54 PM
Dec 26
41 °FPassing clouds.5 mph62%30.14 "Hg10 mi
10:54 PM42 °FPassing clouds.7 mph60%30.15 "Hg10 mi
9:54 PM43 °FPassing clouds.10 mph58%30.16 "Hg10 mi
8:54 PM43 °FPassing clouds.10 mph58%30.15 "Hg10 mi
7:54 PM44 °FPassing clouds.12 mph55%30.15 "Hg10 mi
6:54 PM45 °FPassing clouds.12 mph53%30.15 "Hg10 mi
5:54 PM46 °FClear.9 mph51%30.13 "Hg10 mi
4:54 PM48 °FPassing clouds.7 mph50%30.11 "Hg10 mi
3:54 PM48 °FScattered clouds.8 mph50%30.11 "Hg10 mi
2:54 PM49 °FPassing clouds.13 mph48%30.11 "Hg10 mi
1:54 PM49 °FPassing clouds.10 mph50%30.10 "Hg10 mi
12:54 PM48 °FPassing clouds.15 mph52%30.11 "Hg10 mi
11:54 AM47 °FScattered clouds.12 mph54%30.12 "Hg10 mi
10:54 AM46 °FScattered clouds.14 mph56%30.14 "Hg10 mi
9:54 AM45 °FPassing clouds.13 mph58%30.16 "Hg10 mi
Weather by CustomWeather, © 2014

See weather overviewHow to use our weather pages